Weather History for Oakes, ND

Change the Weather History Date:

Tuesday, August 28, 2012

  Actual Average (KABR) Record (KABR)
Temperature  
Mean Temperature 76 °F 66 °F  
Max Temperature 87 °F 79 °F 104 °F (1937)
Min Temperature 64 °F 53 °F 31 °F (1893)
Degree Days  
Heating Degree Days 0 2  
Month to date heating degree days 30  
Since 1 June heating degree days 120  
Since 1 July heating degree days 44  
Cooling Degree Days 10 4  
Month to date cooling degree days 152  
Year to date cooling degree days 475  
Since 1 June cooling degree days 452  
Growing Degree Days 26 (Base 50)    
Moisture  
Dew Point 65 °F    
Average Humidity 74    
Maximum Humidity 100    
Minimum Humidity 48    
Precipitation  
Precipitation 0.10 in 0.07 in 1.25 in (2014)
Month to date precipitation 2.19  
Year to date precipitation 16.05  
Sea Level Pressure  
Sea Level Pressure 29.99 in    
Wind  
Wind Speed 10 mph (East)    
Max Wind Speed 22 mph    
Max Gust Speed 32 mph    
Visibility 10 miles    
Events Rain , Thunderstorm    
T = Trace of Precipitation, MM = Missing Value Source: NWS Daily Summary

Daily Weather History Graph

Daily Weather History Graph

Search for Another Location

Airport:

Trip Planner

Search our weather history database for the weather conditions in past years. The results will help you decide how hot, cold, wet, or windy it might be!

Date:

Astronomy

Aug. 28, 2012 Rise Set
Actual Time 6:48 AM CDT 8:17 PM CDT
Civil Twilight 6:17 AM CDT 8:48 PM CDT
Nautical Twilight 5:39 AM CDT 9:26 PM CDT
Astronomical Twilight 4:58 AM CDT 10:06 PM CDT
Moon 6:26 PM CDT (8/28) 3:32 AM CDT (8/28)
Length of Visible Light 14h 31m
Length of Day
13h 28m
Waxing Gibbous, 90% of the Moon is Illuminated
Aug 28
Waxing Gibbous
Aug 31
Full
Sep 8
Last Quarter
Sep 15
New
Sep 22
First Quarter

Hourly Weather History & Observations

Time (CDT) Temp. Heat Index Dew Point Humidity Pressure Visibility Wind Dir Wind Speed Gust Speed Precip Events Conditions
12:15 AM 66.2 °F - 59.0 °F 78% 30.07 in 10.0 mi NE 8.1 mph - N/A   Clear
12:35 AM 66.2 °F - 59.0 °F 78% 30.06 in 10.0 mi ENE 8.1 mph - N/A   Clear
12:55 AM 64.4 °F - 59.0 °F 83% 30.06 in 10.0 mi NE 9.2 mph - N/A   Clear
1:15 AM 64.4 °F - 59.0 °F 83% 30.05 in 10.0 mi ENE 10.4 mph - N/A   Clear
1:35 AM 64.4 °F - 59.0 °F 83% 30.05 in 10.0 mi ENE 8.1 mph - N/A   Clear
1:55 AM 66.2 °F - 59.0 °F 78% 30.05 in 10.0 mi East 10.4 mph - N/A   Clear
2:15 AM 66.2 °F - 59.0 °F 78% 30.05 in 10.0 mi East 11.5 mph - N/A   Clear
2:35 AM 68.0 °F - 59.0 °F 73% 30.05 in 10.0 mi East 12.7 mph - N/A   Clear
2:55 AM 68.0 °F - 59.0 °F 73% 30.03 in 10.0 mi East 15.0 mph - N/A   Clear
3:15 AM 68.0 °F - 59.0 °F 73% 30.00 in 10.0 mi East 15.0 mph 19.6 mph N/A Thunderstorm Clear
3:35 AM 68.0 °F - 59.0 °F 73% 30.00 in 10.0 mi East 16.1 mph - N/A   Clear
3:55 AM 68.0 °F - 59.0 °F 73% 29.99 in 10.0 mi East 17.3 mph - N/A Thunderstorm Clear
4:15 AM 69.8 °F - 59.0 °F 68% 30.04 in 10.0 mi SSE 8.1 mph - N/A Thunderstorm Partly Cloudy
4:35 AM 68.0 °F - 62.6 °F 83% 30.11 in 7.0 mi SW 8.1 mph - 0.01 in Rain , Thunderstorm Light Thunderstorms and Rain
4:55 AM 64.4 °F - 64.4 °F 100% 30.08 in 5.0 mi Calm Calm - 0.06 in Rain , Thunderstorm Light Rain
5:15 AM 64.4 °F - 64.4 °F 100% 30.09 in 9.0 mi NE 10.4 mph 17.3 mph N/A Rain Light Rain
5:35 AM 64.4 °F - 64.4 °F 100% 30.10 in 8.0 mi East 5.8 mph - 0.01 in Rain Light Rain
5:55 AM 64.4 °F - 64.4 °F 100% 30.14 in 9.0 mi WSW 6.9 mph - 0.01 in Rain Light Rain
6:15 AM 64.4 °F - 64.4 °F 100% 30.05 in 3.0 mi ESE 21.9 mph - 0.03 in Rain , Thunderstorm Light Rain
6:35 AM 66.2 °F - 66.2 °F 100% 29.99 in 10.0 mi SE 18.4 mph 32.2 mph 0.03 in Rain Light Rain
6:55 AM 66.2 °F - 66.2 °F 100% 30.00 in 10.0 mi SE 20.7 mph 25.3 mph 0.03 in   Clear
7:15 AM 68.0 °F - 62.6 °F 83% 29.98 in 10.0 mi SE 21.9 mph 27.6 mph N/A   Clear
7:35 AM 68.0 °F - 64.4 °F 88% 29.97 in 10.0 mi SE 15.0 mph 25.3 mph N/A   Clear
7:55 AM 68.0 °F - 64.4 °F 88% 29.99 in 10.0 mi SE 13.8 mph 23.0 mph N/A   Clear
8:15 AM 68.0 °F - 62.6 °F 83% 29.97 in 10.0 mi SE 20.7 mph 28.8 mph N/A   Partly Cloudy
8:35 AM 69.8 °F - 60.8 °F 73% 29.97 in 10.0 mi ESE 10.4 mph 20.7 mph N/A   Partly Cloudy
8:55 AM 71.6 °F - 62.6 °F 73% 29.97 in 10.0 mi ESE 10.4 mph - N/A   Clear
9:35 AM 75.2 °F - 62.6 °F 65% 29.98 in 10.0 mi ESE 9.2 mph - N/A   Clear
10:15 AM 77.0 °F - 62.6 °F 61% 30.00 in 10.0 mi ENE 10.4 mph - N/A   Clear
10:35 AM 80.6 °F 81.8 °F 62.6 °F 54% 29.99 in 10.0 mi East 6.9 mph - N/A   Clear
10:55 AM 80.6 °F 81.8 °F 62.6 °F 54% 30.00 in 10.0 mi East 9.2 mph - N/A   Clear
11:15 AM 82.4 °F 83.4 °F 62.6 °F 51% 30.00 in 10.0 mi East 5.8 mph - N/A   Clear
11:35 AM 84.2 °F 85.0 °F 62.6 °F 48% 29.99 in 10.0 mi ENE 10.4 mph - N/A   Clear
11:55 AM 84.2 °F 85.6 °F 64.4 °F 51% 30.00 in 10.0 mi East 5.8 mph - N/A   Clear
12:15 PM 84.2 °F 85.6 °F 64.4 °F 51% 30.00 in 10.0 mi East 8.1 mph - N/A   Clear
12:35 PM 84.2 °F 85.6 °F 64.4 °F 51% 30.00 in 10.0 mi ENE 10.4 mph - N/A   Clear
12:55 PM 84.2 °F 85.6 °F 64.4 °F 51% 29.99 in 10.0 mi East 5.8 mph - N/A   Clear
1:15 PM 86.0 °F 87.3 °F 64.4 °F 48% 29.99 in 10.0 mi SE 4.6 mph - N/A   Clear
1:35 PM 86.0 °F 87.3 °F 64.4 °F 48% 29.99 in 10.0 mi ESE 4.6 mph - N/A   Clear
1:55 PM 86.0 °F 87.3 °F 64.4 °F 48% 29.98 in 10.0 mi NE 9.2 mph - N/A   Clear
2:15 PM 87.8 °F 90.4 °F 66.2 °F 49% 29.97 in 10.0 mi ENE 12.7 mph 16.1 mph N/A   Clear
2:35 PM 86.0 °F 88.2 °F 66.2 °F 51% 29.96 in 10.0 mi ENE 12.7 mph 19.6 mph N/A   Clear
2:55 PM 86.0 °F 88.2 °F 66.2 °F 51% 29.96 in 10.0 mi ENE 12.7 mph 17.3 mph N/A   Clear
3:15 PM 86.0 °F 88.2 °F 66.2 °F 51% 29.95 in 10.0 mi ENE 11.5 mph 19.6 mph N/A   Clear
3:55 PM 86.0 °F 88.2 °F 66.2 °F 51% 29.94 in 10.0 mi East 12.7 mph 17.3 mph N/A   Clear
4:15 PM 86.0 °F 88.2 °F 66.2 °F 51% 29.95 in 10.0 mi ENE 11.5 mph 17.3 mph N/A   Clear
4:35 PM 86.0 °F 88.2 °F 66.2 °F 51% 29.94 in 10.0 mi East 11.5 mph - N/A   Clear
4:55 PM 86.0 °F 88.2 °F 66.2 °F 51% 29.94 in 10.0 mi East 11.5 mph - N/A   Clear
5:15 PM 86.0 °F 88.2 °F 66.2 °F 51% 29.93 in 10.0 mi ENE 13.8 mph - N/A   Clear
5:35 PM 86.0 °F 88.2 °F 66.2 °F 51% 29.94 in 10.0 mi East 12.7 mph - N/A   Clear
6:15 PM 84.2 °F 86.6 °F 66.2 °F 55% 29.94 in 10.0 mi ENE 10.4 mph - N/A   Clear
6:35 PM 84.2 °F 87.3 °F 68.0 °F 58% 29.94 in 10.0 mi ENE 10.4 mph - N/A   Clear
7:15 PM 82.4 °F 85.4 °F 68.0 °F 62% 29.93 in 10.0 mi ENE 9.2 mph - N/A   Clear
7:35 PM 80.6 °F 83.9 °F 69.8 °F 70% 29.93 in 10.0 mi ENE 6.9 mph - N/A   Clear
7:55 PM 77.0 °F - 69.8 °F 78% 29.93 in 10.0 mi ENE 5.8 mph - N/A   Clear
8:15 PM 75.2 °F - 71.6 °F 89% 29.93 in 10.0 mi ENE 6.9 mph - N/A   Clear
8:35 PM 73.4 °F - 71.6 °F 94% 29.94 in 10.0 mi ENE 6.9 mph - N/A   Clear
8:55 PM 73.4 °F - 69.8 °F 88% 29.94 in 10.0 mi ENE 8.1 mph - N/A   Clear
9:15 PM 71.6 °F - 71.6 °F 100% 29.94 in 10.0 mi ENE 8.1 mph - N/A   Clear
9:35 PM 71.6 °F - 69.8 °F 94% 29.95 in 10.0 mi ENE 9.2 mph - N/A   Clear
9:55 PM 71.6 °F - 69.8 °F 94% 29.95 in 10.0 mi ENE 8.1 mph - N/A   Clear
10:15 PM 69.8 °F - 69.8 °F 100% 29.95 in 10.0 mi ENE 8.1 mph - N/A   Clear
10:35 PM 69.8 °F - 69.8 °F 100% 29.95 in 10.0 mi East 6.9 mph - N/A   Clear
10:55 PM 68.0 °F - 68.0 °F 100% 29.94 in 10.0 mi East 8.1 mph - N/A   Clear
11:15 PM 68.0 °F - 68.0 °F 100% 29.94 in 10.0 mi ENE 6.9 mph - N/A   Clear
11:35 PM 68.0 °F - 68.0 °F 100% 29.94 in 10.0 mi ENE 6.9 mph - N/A   Clear
11:55 PM 68.0 °F - 68.0 °F 100% 29.94 in 10.0 mi East 6.9 mph - N/A   Clear